Belize, Belize

12:00 AM CST on August 22, 2017 (GMT -0600)
Philip S W Goldson International

Weather History for MZBZ - January, 2012

Change the Weather History Date:

Thursday, January 19, 2012

  Actual Average Record
Temperature  
Mean Temperature 76 °F -  
Max Temperature 82 °F - 87 °F (2005)
Min Temperature 71 °F - 60 °F (1997)
Cooling Degree Days 12    
Growing Degree Days 26 (Base 50)    
Moisture  
Dew Point 71 °F    
Average Humidity 78    
Maximum Humidity 100    
Minimum Humidity 58    
Precipitation  
Precipitation 0.01 in 0.13 in - ()
Sea Level Pressure  
Sea Level Pressure 30.02 in    
Wind  
Wind Speed 6 mph ()    
Max Wind Speed 13 mph    
Max Gust Speed -    
Visibility 7.8 miles    
Events      
Averages and records for this station are not official NWS values.
T = Trace of Precipitation, MM = Missing Value Source: Averaged Metar Reports

Daily Weather History Graph

Daily Weather History Graph

Search for Another Location

Airport or City:

Trip Planner

Search our weather history database for the weather conditions in past years. The results will help you decide how hot, cold, wet, or windy it might be!

Date:

Astronomy

Jan. 19, 2012 Rise Set
Actual Time 6:26 AM CST 5:40 PM CST
Civil Twilight 6:03 AM CST 6:03 PM CST
Nautical Twilight 5:37 AM CST 6:30 PM CST
Astronomical Twilight 5:10 AM CST 6:56 PM CST
Moon 2:55 AM CST (1/19) 2:21 PM CST (1/19)
Length of Visible Light 12h 00m
Length of Day
11h 13m
Waning Crescent, 15% of the Moon is Illuminated
Jan 19
Waning Crescent
Jan 23
New
Jan 30
First Quarter
Feb 7
Full
Feb 14
Last Quarter

Hourly Weather History & Observations

Time (CST) Temp. Heat Index Dew Point Humidity Pressure Visibility Wind Dir Wind Speed Gust Speed Precip Events Conditions
12:00 AM 78 °F - 72 °F 75% 30.06 in 12 mi ENE 5.8 mph - -  
12:00 AM 77.0 °F - 71.6 °F 83% 30.05 in 6.2 mi ENE 5.8 mph - N/A   Scattered Clouds
3:00 AM 72 °F - 68 °F 84% 30.01 in 12 mi Calm Calm - -   Scattered Clouds
3:00 AM 71.6 °F - 68.0 °F 88% 30.00 in 6.2 mi Calm Calm - N/A   Partly Cloudy
6:00 AM 71 °F - 70 °F 95% 30.03 in 12 mi NNW 3.5 mph - -  
6:00 AM 71.6 °F - 69.8 °F 94% 30.01 in 6.2 mi NNW 3.5 mph - N/A   Scattered Clouds
7:00 AM 71.6 °F - 69.8 °F 94% 30.04 in 6.2 mi WNW 3.5 mph - N/A   Scattered Clouds
8:00 AM 73.4 °F - 73.4 °F 100% 30.04 in 6.2 mi Calm Calm - N/A   Scattered Clouds
9:00 AM 77.0 °F - 73.4 °F 89% 30.08 in 6.2 mi North 3.5 mph - N/A   Scattered Clouds
10:00 AM 77.0 °F - 71.6 °F 83% 30.08 in 6.2 mi North 5.8 mph - N/A   Scattered Clouds
11:00 AM 80.6 °F 84.6 °F 71.6 °F 74% 30.06 in 6.2 mi ENE 9.2 mph - N/A   Partly Cloudy
12:00 PM 82 °F - 71 °F 62% 30.05 in 12 mi ENE 10.4 mph - -   Partly Cloudy
12:00 PM 82.4 °F 87.2 °F 71.6 °F 70% 30.04 in 6.2 mi ENE 10.4 mph - N/A   Scattered Clouds
1:00 PM 82.4 °F 87.2 °F 71.6 °F 70% 30.01 in 6.2 mi ENE 9.2 mph - N/A   Scattered Clouds
2:00 PM 82.4 °F 87.2 °F 71.6 °F 70% 30.00 in 6.2 mi ENE 12.7 mph - N/A   Scattered Clouds
3:00 PM 82 °F - 70 °F 58% 29.99 in 12 mi ENE 12.7 mph - -   Partly Cloudy
3:00 PM 82.4 °F 86.3 °F 69.8 °F 66% 29.98 in 6.2 mi ENE 12.7 mph - N/A   Scattered Clouds
4:00 PM 82.4 °F 87.2 °F 71.6 °F 70% 29.99 in 6.2 mi ENE 10.4 mph - N/A   Scattered Clouds
5:00 PM 80.6 °F 83.9 °F 69.8 °F 70% 29.99 in 6.2 mi ENE 8.1 mph - N/A   Scattered Clouds
6:00 PM 79 °F - 71 °F 69% 30.00 in 12 mi ENE 9.2 mph - -  
6:00 PM 78.8 °F - 69.8 °F 74% 30.00 in 6.2 mi ENE 9.2 mph - N/A   Scattered Clouds
7:00 PM 78.8 °F - 71.6 °F 78% 30.00 in 6.2 mi ENE 10.4 mph - N/A   Scattered Clouds
8:00 PM 78.8 °F - 71.6 °F 78% 30.02 in 6.2 mi ENE 8.1 mph - N/A   Mostly Cloudy
9:00 PM 78 °F - 71 °F 73% 30.04 in 12 mi NE 10.4 mph - -   Partly Cloudy
9:00 PM 78.8 °F - 71.6 °F 78% 30.03 in 6.2 mi NE 10.4 mph - N/A   Partly Cloudy
11:00 PM 78.8 °F - 71.6 °F 78% 30.01 in 6.2 mi ENE 6.9 mph - N/A   Mostly Cloudy